Miscellaneous Local Product
Issued by NWS Hastings, NE

Home | Current Version | Previous Version | Graphics & Text | Print | Product List | Glossary On
Versions: 1 2 3 4 5 6 7 8 9 10 11 12 13 14 15 16 17 18 19 20 21 22 23 24 25 26 27 28 29 30 31 32 33 34 35 36 37 38 39 40 41 42 43 44 45 46 47 48 49 50
393
AXUS43 KGID 232002
MISGRI

GID CWA HOURLY WEATHER ROUNDUP
NATIONAL WEATHER SERVICE HASTINGS NE
200 PM CST THU FEB 23 2017

NOTE: "FAIR" INDICATES FEW OR NO CLOUDS BELOW 12,000 FEET WITH NO
SIGNIFICANT WEATHER AND/OR OBSTRUCTIONS TO VISIBILITY.

...SOUTH CENTRAL NEBRASKA...

CITY           SKY/WX    TMP DP  RH WIND       PRES   REMARKS
GRAND ISLAND   CLOUDY    33  32  96 NE22G32   29.61F WCI  21
HASTINGS       CLOUDY    35  32  88 NE24G30   29.58F WCI  23
KEARNEY        CLOUDY    34  28  80 NE21G29   29.59F WCI  22
ORD            CLOUDY    31  26  82 NE21G32   29.63F WCI  18
YORK           CLOUDY    37  32  81 NE21G29   29.59F WCI  27
AURORA         CLOUDY    35  33  89 NE25G33   29.59F WCI  23
LEXINGTON      CLOUDY    32  30  92 NE16      29.62R WCI  21
HOLDREGE       CLOUDY    32  31  94 NE20G25   29.57F WCI  21
HEBRON         CLOUDY    41  33  73 NE17G25   29.54F

...NEBRASKA PANHANDLE...

CITY           SKY/WX    TMP DP  RH WIND       PRES   REMARKS
CHADRON        FOG       25  21  85 N18       29.79S VSB 1/2 WCI  11
ALLIANCE       HVY SNOW  22  19  89 NE21      29.67S VSB 1/4 WCI   6
SCOTTSBLUFF    LGT SNOW  23  18  81 NE20G31   29.69S VSB 3/4 WCI   8
SIDNEY         SNOW      23  20  88 NE22      29.62R VSB 1/2 WCI   8

...WESTERN AND NORTH CENTRAL NEBRASKA...

CITY           SKY/WX    TMP DP  RH WIND       PRES   REMARKS
VALENTINE      SNOW      26  22  84 NE22G33   29.76F VSB 1/4 WCI  12
AINSWORTH      SNOW      27  26  98 NE24G31   29.73F VSB 1/2 WCI  12
ONEILL         LGT SNOW  30  29  94 NE23G29   29.73F WCI  17
BROKEN BOW     CLOUDY    30  26  85 NE21G30   29.60F WCI  17
IMPERIAL       FRZ RAIN  28  26  92 NE21G26   29.59S FOG     WCI  15
NORTH PLATTE   CLOUDY    30  23  75 NE18      29.63R WCI  18
MCCOOK         MIX PCPN  32  31  96 NE18      29.58R FOG     WCI  20

...EASTERN NEBRASKA...

CITY           SKY/WX    TMP DP  RH WIND       PRES   REMARKS
NORFOLK        CLOUDY    33  28  81 NE20G31   29.68F WCI  21
SO SIOUX CITY  CLOUDY    38  30  73 NE22      29.74F WCI  27
TEKAMAH        CLOUDY    37  32  82 NE21      29.69F WCI  26
COLUMBUS       CLOUDY    36  28  75 N17G26    29.68R WCI  25
ALBION         CLOUDY    34  29  82 NE22G31   29.66F WCI  22
OMAHA EPPLEY   CLOUDY    42  34  73 NE13      29.64F
OFFUTT AFB     CLOUDY    43  35  74 NE15      29.62F
MILLARD        CLOUDY    44  37  75 NE7       29.64F
LINCOLN        CLOUDY    42  34  73 NE21      29.61F
NEBRASKA CITY  CLOUDY    47  34  62 NE17      29.57F
BEATRICE       CLOUDY    42  37  82 NE16      29.56F
FALLS CITY     CLOUDY    49  39  68 E13       29.51F

...NORTHERN KANSAS...

CITY           SKY/WX    TMP DP  RH WIND       PRES   REMARKS
GOODLAND       FRZ RAIN  31  31 100 NE17      29.50S WCI  19
HILL CITY      CLOUDY    39  34  82 NE16G25   29.52S WCI  30
NORTON         CLOUDY    34  28  80 NE16G23   29.53F WCI  23
PHILLIPSBURG   CLOUDY    39  34  81 NE16      29.53F WCI  30
SMITH CENTER   CLOUDY    37  32  81 NE20G28   29.51F WCI  27
HAYS           SUNNY     57  39  51 E17G23    29.42F
RUSSELL        SUNNY     57  40  52 NE13G23   29.41F
CONCORDIA      PTSUNNY   48  37  65 E16G24    29.46F
SALINA         SUNNY     65  45  48 NE9       29.41F
TOPEKA         CLOUDY    59  47  64 E13       29.45F



USA.gov is the U.S. government's official web portal to all federal, state and local government web resources and services.